DateTime,Index
2002062706,0.0
2002062712,0.0
2002062718,0.0
2002062800,0.0
2002062806,0.0
2002062812,0.0
2002062818,0.0
2002062900,1225.0
2002062906,2025.0
2002062912,2025.0
2002062918,2025.0
2002063000,2500.0
2002063006,2500.0
2002063012,2500.0
2002063018,2500.0
2002070100,2500.0
2002070106,2500.0
2002070112,2500.0
2002070118,2500.0
2002070200,2500.0
2002070206,2025.0
2002070212,2500.0
2002070218,2025.0
2002070300,2500.0
2002070306,3025.0
2002070312,3025.0
2002070318,4225.0
2002070400,5625.0
2002070406,5625.0
2002070412,8100.0
2002070418,8100.0
2002070500,9025.0
2002070506,10000.0
2002070512,11025.0
2002070518,12100.0
2002070600,12100.0
2002070606,12100.0
2002070612,10000.0
2002070618,10000.0
2002070700,10000.0
2002070706,13225.0
2002070712,14400.0
2002070718,16900.0
2002070800,16900.0
2002070806,16900.0
2002070812,14400.0
2002070818,14400.0
2002070900,13225.0
2002070906,12100.0
2002070912,9025.0
2002070918,7225.0
2002071000,5625.0
2002071006,4225.0
2002071012,3025.0
2002071018,2025.0
